Temp
67 67 66 66 66 66 66 66 66 66 66 67 67 67 67 66 68 69 68 72 73 79 77 75 77 75 72 66 65 60 47 43 45 46 45 51 48 52 53 48 49 49 48 51 53
66 66 66 66 66 66 66 66 66 66 66 67 67 67 66 65 65 69 77 79 80 79 75 73 71 71 63 62 60 53 43 45 52 49 47 51 49 49 47 46 45 46 50 52 52
66 66 66 66 66 66 66 66 66 66 67 67 67 66 66 64 65 67 80 81 81 78 74 72 72 68 58 58 56 52 45 51 51 53 53 49 47 52 46 42 44 43 45 48 48
66 66 66 66 66 66 66 66 66 67 67 67 67 66 65 66 56 72 80 80 80 76 74 73 68 59 52 51 56 49 54 54 54 55 53 48 50 45 45 45 49 49 49 47 45
65 65 65 66 66 66 66 66 67 67 67 66 66 66 68 63 63 79 77 79 81 78 73 69 64 58 52 53 56 49 50 52 52 51 49 51 46 45 44 48 50 51 49 45 44
65 65 65 66 66 65 66 66 67 66 66 66 66 65 67 60 76 77 76 78 77 74 69 69 64 62 55 52 51 51 51 50 51 50 50 47 45 47 46 49 48 48 45 44 45
65 64 64 65 65 65 66 66 66 66 65 66 67 71 67 62 74 75 78 73 75 73 70 69 68 63 56 51 54 53 46 48 47 49 47 49 42 41 48 49 46 44 43 45 45
64 64 64 64 64 64 65 65 65 65 65 66 67 67 60 75 74 76 76 75 76 76 72 69 69 61 56 56 53 48 45 40 48 49 49 46 37 44 47 45 42 42 40 43 44
64 64 63 63 63 63 63 64 64 65 66 67 66 65 58 77 72 73 71 71 72 74 72 77 67 57 55 48 43 42 38 40 43 50 48 44 36 44 47 46 41 39 39 41 41
62 62 62 62 62 62 62 63 66 67 69 74 76 63 68 65 71 72 71 72 68 68 67 65 56 50 48 45 39 40 38 42 40 46 47 42 37 42 45 44 40 38 38 39 41
61 61 61 62 62 62 66 68 65 64 66 60 59 62 65 71 71 69 69 68 67 63 53 55 49 42 43 45 49 46 43 41 42 49 46 42 37 41 43 41 37 37 38 39 40
61 61 61 61 62 61 63 63 60 66 58 66 66 66 69 66 64 68 69 62 60 52 53 50 42 49 54 52 50 48 44 39 42 47 43 39 36 39 41 40 40 40 39 39 39
62 61 61 61 61 64 65 63 68 67 58 62 65 64 65 67 59 62 65 59 54 51 48 46 49 57 54 48 48 42 42 40 42 43 42 39 33 35 40 41 42 43 40 40 39
62 62 60 60 65 64 63 69 68 66 49 56 62 65 67 64 60 66 63 59 57 49 50 48 54 53 50 47 46 40 48 46 45 39 34 38 31 30 34 37 40 38 36 37 37
62 61 61 63 65 63 66 66 65 66 39 58 61 70 65 61 59 64 65 63 51 50 49 44 49 48 48 47 48 47 49 45 44 38 33 32 30 28 34 33 36 35 36 36 36
60 61 60 65 64 62 65 64 65 51 38 53 60 58 57 59 59 62 59 61 57 53 52 47 53 49 47 51 50 52 44 43 39 36 30 33 34 30 29 34 34 36 36 36 35
59 60 65 68 63 64 63 62 50 42 54 51 53 57 54 52 55 55 50 46 43 41 40 47 47 50 51 46 49 47 38 32 33 30 31 35 32 33 34 35 37 36 34 34 34
58 61 64 67 63 63 62 55 43 50 48 56 55 54 50 51 51 51 47 42 45 43 40 38 40 45 50 44 40 40 38 33 28 27 30 36 30 34 36 38 39 39 35 34 33
61 61 61 64 65 62 58 45 45 48 54 54 53 48 46 52 49 48 41 42 42 42 39 38 40 47 48 47 45 41 37 40 34 29 27 31 31 34 35 36 36 35 34 32 32
59 58 59 65 63 60 51 45 46 53 54 54 47 48 43 46 46 45 40 44 45 46 43 39 38 45 47 47 46 41 45 36 33 27 26 29 29 33 30 33 36 34 32 32 32
58 57 62 63 62 55 47 44 50 55 55 52 49 47 46 45 44 42 41 44 46 46 44 39 39 40 43 41 40 41 38 37 36 31 26 22 29 34 34 35 34 33 33 31 30
55 53 62 62 54 44 46 50 54 53 55 54 52 50 47 46 43 42 43 43 46 45 41 39 38 35 41 41 43 40 38 38 31 30 28 25 29 36 35 37 36 33 32 31 31
54 53 61 61 48 43 47 50 52 52 51 52 50 51 49 46 42 44 43 47 47 44 40 41 38 35 38 37 39 37 39 39 36 32 28 26 32 36 34 34 34 31 30 30 30
54 52 54 53 50 48 47 47 47 51 51 52 50 50 48 45 47 44 42 46 46 45 51 46 38 39 37 40 39 36 38 39 36 27 28 29 33 32 33 32 31 30 29 28 28
52 51 51 49 50 49 49 49 47 47 50 51 48 49 49 43 43 42 43 42 45 48 43 41 36 35 39 41 39 39 39 38 35 35 32 35 34 35 35 32 31 30 29 28 27
52 51 50 48 52 51 47 49 49 46 48 48 49 50 47 45 46 45 45 42 42 40 39 40 37 34 36 38 37 37 39 38 37 35 35 39 37 37 32 31 29 27 29 28 27
50 52 54 47 49 49 48 50 51 50 47 48 49 47 45 46 46 44 43 43 44 42 40 38 36 33 33 35 35 34 41 37 37 38 37 33 37 34 30 32 29 27 28 26 25
MSLP
1018.61 1018.32 1018.50 1018.57 1018.65 1018.58 1018.78 1019.01 1019.06 1019.15 1018.85 1018.49 1018.21 1018.03 1017.76 1017.46 1016.77 1016.48 1016.60 1016.77 1016.31 1015.57 1015.19 1014.75 1014.28 1014.63 1015.05 1016.95 1018.06 1019.29 1022.76 1025.37 1026.09 1026.71 1027.67 1028.28 1028.81 1029.49 1029.95 1030.08 1030.62 1031.21 1031.96 1032.78 1032.88
1018.48 1018.43 1018.65 1018.79 1018.65 1018.77 1018.95 1019.07 1019.09 1018.90 1018.72 1018.51 1018.32 1018.06 1017.76 1017.60 1017.26 1016.64 1016.50 1016.09 1015.53 1015.53 1015.41 1015.37 1015.43 1015.75 1017.52 1018.88 1019.76 1021.27 1024.43 1025.66 1025.96 1026.53 1027.53 1028.27 1028.87 1029.69 1030.72 1031.18 1031.83 1032.43 1032.88 1032.87 1032.71
1018.62 1018.72 1018.76 1018.71 1018.80 1018.93 1018.98 1019.03 1018.87 1018.91 1018.75 1018.65 1018.23 1017.97 1017.67 1017.50 1017.36 1017.40 1016.22 1015.74 1015.11 1015.04 1015.46 1015.70 1015.99 1016.79 1019.26 1020.36 1021.74 1023.20 1025.13 1026.03 1026.83 1026.93 1027.64 1028.64 1029.47 1029.98 1030.88 1031.87 1032.13 1032.78 1033.23 1033.20 1033.33
1018.79 1018.68 1018.71 1018.83 1018.88 1018.92 1018.94 1018.82 1018.87 1018.78 1018.87 1018.66 1018.22 1017.90 1017.46 1017.33 1018.36 1017.42 1016.54 1015.94 1015.20 1014.96 1015.38 1015.96 1016.81 1018.64 1021.06 1022.26 1022.94 1024.52 1025.83 1026.16 1027.11 1027.61 1028.09 1028.93 1029.65 1030.53 1031.08 1031.66 1032.24 1032.64 1033.03 1033.41 1033.75
1018.72 1018.70 1018.82 1018.94 1018.98 1018.93 1018.96 1018.94 1018.83 1018.83 1018.79 1018.46 1018.28 1017.92 1017.41 1018.10 1018.40 1017.33 1016.93 1016.29 1015.42 1015.28 1016.13 1016.93 1017.97 1019.68 1021.85 1023.12 1023.87 1025.20 1026.34 1026.91 1027.40 1027.84 1028.68 1029.23 1030.17 1030.75 1031.56 1031.82 1032.12 1032.62 1033.03 1033.56 1033.86
1018.75 1018.86 1018.90 1019.09 1018.93 1019.04 1019.07 1019.04 1018.97 1018.96 1018.72 1018.49 1018.35 1017.90 1017.83 1018.03 1018.08 1017.67 1017.22 1016.71 1016.41 1016.11 1016.86 1017.12 1018.57 1019.80 1022.16 1023.82 1024.62 1025.81 1026.56 1027.49 1027.86 1028.40 1029.09 1029.71 1030.62 1030.82 1031.94 1031.99 1032.39 1032.84 1033.49 1033.69 1033.87
1018.96 1018.97 1019.13 1019.18 1019.02 1019.22 1019.19 1019.16 1019.06 1018.90 1018.79 1018.67 1018.43 1018.05 1018.19 1018.63 1018.13 1017.84 1017.40 1017.36 1017.24 1017.09 1017.78 1018.33 1018.84 1019.80 1022.58 1024.52 1025.50 1026.22 1027.26 1027.71 1028.32 1028.71 1029.05 1029.62 1030.66 1031.00 1031.37 1032.05 1032.68 1033.16 1033.55 1033.94 1034.17
1019.02 1019.10 1019.29 1019.26 1019.28 1019.32 1019.23 1019.20 1018.99 1018.91 1018.92 1018.85 1018.58 1018.33 1018.76 1018.23 1018.09 1017.90 1017.82 1017.68 1017.52 1017.70 1018.10 1018.87 1019.30 1020.87 1022.96 1024.61 1025.67 1026.29 1027.15 1027.74 1027.85 1028.34 1028.82 1029.48 1030.42 1030.88 1031.31 1032.05 1032.88 1033.45 1033.94 1034.17 1034.35
1019.15 1019.24 1019.40 1019.41 1019.50 1019.32 1019.23 1018.96 1018.75 1018.75 1018.77 1018.79 1018.64 1018.64 1019.12 1018.32 1018.38 1018.46 1018.47 1018.48 1018.25 1018.19 1018.45 1018.66 1019.67 1022.31 1023.75 1024.70 1025.76 1026.34 1026.75 1027.09 1027.49 1027.70 1028.54 1029.59 1030.26 1030.73 1031.24 1032.02 1033.03 1033.74 1034.10 1034.36 1034.62
1019.46 1019.44 1019.58 1019.58 1019.52 1019.42 1019.15 1019.01 1018.46 1018.38 1018.66 1018.48 1018.72 1019.30 1019.37 1019.41 1019.00 1018.97 1018.68 1018.65 1018.73 1018.79 1019.00 1019.63 1021.33 1022.99 1024.23 1024.79 1025.34 1025.55 1025.94 1026.32 1026.78 1027.34 1028.18 1029.24 1029.98 1030.77 1031.23 1031.98 1032.92 1033.73 1034.12 1034.30 1034.63
1019.73 1019.69 1019.61 1019.73 1019.56 1019.56 1018.98 1018.75 1019.26 1019.27 1019.58 1020.03 1020.09 1019.97 1019.82 1019.49 1019.11 1019.29 1019.24 1019.11 1019.16 1019.60 1020.61 1021.54 1022.66 1024.00 1024.38 1024.47 1024.43 1024.65 1025.11 1025.62 1026.21 1026.73 1027.82 1028.56 1029.78 1030.46 1031.18 1032.24 1033.19 1033.57 1034.01 1034.32 1034.64
1019.95 1019.83 1019.84 1019.91 1019.76 1019.73 1019.55 1020.06 1020.22 1020.29 1020.81 1020.42 1020.20 1020.10 1019.93 1019.81 1019.79 1019.77 1019.46 1019.90 1020.28 1021.28 1021.62 1022.53 1023.61 1023.84 1023.93 1023.99 1023.99 1024.29 1024.79 1025.58 1026.07 1026.60 1027.56 1028.39 1029.53 1030.45 1031.38 1032.03 1032.76 1033.19 1033.64 1034.19 1034.57
1019.93 1019.96 1020.06 1019.98 1019.82 1019.86 1020.00 1020.34 1020.15 1020.13 1020.67 1020.76 1020.49 1020.32 1020.21 1020.11 1020.75 1020.76 1020.57 1020.76 1021.46 1022.15 1022.74 1023.35 1023.83 1023.59 1023.75 1024.29 1024.36 1024.58 1024.81 1025.42 1026.02 1026.59 1027.32 1028.25 1029.58 1030.80 1031.47 1032.02 1032.55 1032.83 1033.31 1033.90 1034.36
1020.03 1020.12 1020.15 1019.89 1020.05 1020.32 1020.50 1020.32 1020.21 1020.27 1020.99 1021.25 1020.59 1020.39 1020.38 1020.58 1020.96 1020.79 1020.85 1021.21 1021.73 1022.83 1023.30 1023.88 1023.87 1023.85 1023.98 1024.45 1024.73 1024.66 1024.75 1025.18 1025.73 1026.72 1027.59 1028.34 1030.13 1030.81 1031.45 1032.14 1032.55 1033.09 1033.55 1034.07 1034.60
1020.21 1020.23 1020.17 1019.79 1020.14 1020.66 1020.68 1020.35 1020.18 1020.38 1021.32 1021.43 1020.67 1020.15 1020.58 1021.09 1021.54 1021.22 1021.27 1021.31 1022.48 1023.27 1023.77 1024.38 1024.28 1024.30 1024.40 1024.60 1024.75 1024.73 1024.85 1025.32 1025.79 1026.78 1027.78 1028.79 1030.40 1030.16 1031.46 1032.27 1032.49 1033.29 1033.75 1034.32 1034.68
1020.39 1020.29 1020.24 1020.13 1020.51 1020.71 1020.48 1020.30 1020.48 1021.22 1021.55 1021.43 1020.93 1020.74 1021.13 1021.64 1021.93 1021.93 1022.17 1022.28 1023.06 1023.63 1024.11 1024.56 1024.36 1024.62 1024.72 1024.67 1024.80 1024.79 1025.20 1025.72 1026.42 1027.29 1028.31 1028.37 1029.83 1029.98 1031.13 1031.19 1032.15 1033.13 1033.85 1034.36 1034.84
1020.55 1020.34 1020.23 1020.32 1020.84 1020.61 1020.50 1020.93 1021.67 1022.06 1022.05 1021.93 1021.53 1021.47 1021.87 1022.40 1022.65 1023.00 1024.00 1024.66 1025.14 1025.22 1025.37 1025.09 1024.94 1024.92 1024.96 1025.05 1024.92 1025.35 1025.82 1026.79 1027.64 1028.13 1028.23 1028.35 1029.68 1028.75 1029.80 1030.64 1031.52 1032.73 1033.83 1034.47 1034.97
1020.65 1020.46 1020.59 1020.66 1020.74 1020.61 1020.97 1022.01 1022.30 1022.47 1022.30 1021.97 1021.95 1022.07 1022.46 1022.80 1023.25 1023.95 1024.94 1026.20 1026.51 1026.50 1026.42 1026.19 1025.55 1025.37 1025.49 1025.75 1026.00 1026.23 1026.72 1027.77 1028.73 1029.14 1028.81 1028.61 1029.22 1028.95 1029.90 1030.89 1031.64 1032.58 1033.73 1034.58 1035.26
1020.70 1020.90 1020.97 1020.89 1020.68 1020.77 1021.61 1022.72 1022.82 1022.71 1022.46 1022.35 1022.38 1022.55 1022.91 1023.09 1023.59 1024.50 1025.78 1026.69 1027.09 1027.00 1027.05 1026.70 1026.00 1025.67 1025.69 1025.82 1026.23 1026.38 1027.07 1027.69 1028.50 1029.23 1029.86 1028.69 1028.69 1029.21 1030.31 1031.33 1032.16 1033.15 1034.01 1034.88 1035.33
1021.26 1021.53 1021.34 1020.84 1020.79 1021.24 1022.53 1023.41 1023.46 1023.06 1022.82 1022.63 1022.73 1022.87 1023.28 1023.59 1024.08 1024.91 1026.13 1026.97 1027.19 1027.23 1027.20 1027.29 1026.90 1026.02 1025.89 1025.98 1026.25 1026.52 1027.15 1027.91 1028.87 1029.85 1030.08 1029.03 1029.13 1029.17 1030.41 1031.09 1032.13 1033.26 1034.28 1034.92 1035.34
1021.62 1022.11 1021.29 1020.93 1021.10 1022.35 1023.44 1023.85 1023.66 1023.26 1023.05 1022.94 1022.99 1023.21 1023.58 1023.96 1024.55 1025.46 1026.55 1027.31 1027.57 1027.64 1027.60 1027.60 1027.52 1026.75 1026.39 1026.30 1026.45 1026.97 1027.38 1028.10 1029.08 1030.11 1030.63 1030.45 1028.96 1028.34 1029.25 1030.43 1031.89 1033.27 1034.19 1034.88 1035.54
1022.01 1022.23 1021.37 1021.09 1022.25 1023.56 1024.20 1023.98 1023.65 1023.53 1023.27 1023.08 1023.28 1023.55 1023.93 1024.40 1025.07 1025.86 1026.65 1027.42 1027.88 1028.06 1028.12 1028.23 1028.16 1027.55 1026.58 1026.46 1026.76 1027.16 1027.53 1028.35 1029.76 1030.52 1030.96 1031.26 1028.90 1028.51 1029.34 1030.50 1031.89 1033.37 1034.20 1034.95 1035.59
1022.50 1022.38 1021.66 1021.54 1023.10 1024.50 1024.48 1024.47 1024.26 1023.94 1023.78 1023.53 1023.82 1023.89 1024.16 1024.84 1025.66 1026.24 1027.02 1027.71 1028.07 1028.34 1028.53 1028.62 1028.55 1028.16 1027.03 1027.23 1027.11 1027.44 1027.67 1028.35 1029.40 1030.31 1030.72 1031.23 1028.74 1029.06 1030.00 1031.13 1032.24 1033.31 1034.36 1035.08 1035.78
1022.79 1023.05 1022.72 1022.82 1023.48 1023.83 1024.41 1024.64 1024.69 1024.27 1024.09 1023.98 1024.17 1024.20 1024.50 1025.22 1025.76 1026.55 1027.47 1028.12 1028.39 1028.63 1028.82 1028.95 1028.94 1028.64 1028.20 1027.26 1027.17 1027.56 1027.76 1028.27 1029.15 1030.55 1030.16 1029.37 1028.34 1029.18 1030.33 1031.54 1032.58 1033.57 1034.42 1035.20 1035.93
1023.11 1023.37 1023.27 1023.91 1023.88 1023.78 1023.95 1024.44 1024.78 1024.59 1024.42 1024.29 1024.59 1024.61 1024.79 1025.68 1026.29 1026.91 1027.71 1028.46 1028.80 1028.91 1029.14 1029.35 1029.45 1028.99 1028.06 1027.47 1027.54 1027.30 1027.45 1028.13 1028.78 1028.67 1029.29 1027.56 1028.14 1028.35 1029.54 1031.05 1032.36 1033.53 1034.58 1035.39 1036.11
1023.12 1023.35 1023.61 1023.86 1023.46 1023.73 1024.13 1024.43 1024.67 1025.02 1025.03 1024.97 1024.92 1025.14 1025.42 1026.03 1026.63 1027.19 1027.72 1028.46 1028.78 1029.40 1029.68 1029.86 1029.93 1029.65 1028.74 1027.75 1027.66 1027.35 1026.87 1027.20 1027.65 1028.03 1028.10 1027.66 1027.81 1028.06 1029.59 1031.14 1032.78 1033.72 1034.63 1035.45 1036.07
1023.14 1023.12 1023.20 1024.20 1023.94 1024.02 1024.09 1024.29 1024.52 1024.94 1025.65 1025.59 1025.58 1025.69 1026.29 1026.73 1027.22 1027.67 1028.03 1028.49 1028.59 1029.21 1029.96 1030.42 1030.77 1030.78 1029.64 1028.47 1027.66 1027.02 1025.83 1026.38 1026.44 1026.47 1026.73 1027.29 1027.22 1028.56 1030.34 1031.44 1032.69 1033.84 1034.74 1035.49 1035.99
Wind_Speed
6 7 5 5 3 4 4 3 1 2 4 6 8 8 9 12 11 3 9 6 7 16 14 6 8 6 9 8 8 4 7 3 6 8 5 8 5 4 3 9 7 6 7 6 5
6 6 5 4 3 4 4 3 2 4 6 6 6 8 9 10 1 9 5 11 14 7 6 9 9 11 7 7 6 8 6 0 3 5 7 6 5 5 5 7 7 8 6 8 11
6 5 5 4 4 4 3 3 5 4 5 5 7 9 10 6 5 6 11 18 17 1 4 0 3 8 9 6 7 5 5 4 6 11 7 6 4 4 12 5 2 8 6 7 10
5 5 5 5 5 4 3 4 3 4 4 5 8 11 11 1 5 7 16 17 13 3 4 5 8 7 7 7 4 9 5 6 6 6 5 4 4 5 3 5 8 9 8 6 8
7 5 6 5 5 4 1 2 3 5 6 8 9 11 4 8 3 8 15 13 7 7 7 7 10 6 6 7 10 10 4 7 7 10 7 7 5 7 7 8 9 9 9 8 7
6 6 6 5 5 3 0 2 4 6 8 9 10 11 6 14 5 9 8 7 8 6 4 6 6 10 9 6 6 5 10 8 6 6 6 10 6 4 4 8 8 9 8 7 8
7 7 6 5 4 1 2 5 6 7 8 9 10 3 11 3 3 7 8 5 6 4 7 4 7 8 7 6 3 8 7 4 2 5 4 11 2 3 7 8 8 8 8 7 6
8 8 6 5 3 3 6 7 7 7 7 5 6 5 5 4 4 8 7 7 8 6 10 8 10 12 7 7 5 5 4 2 5 7 6 2 3 5 7 9 8 7 7 6 4
8 8 7 6 5 6 8 10 8 7 6 5 4 6 3 6 5 5 5 3 5 6 6 6 9 7 3 5 4 1 2 3 2 9 6 5 3 7 7 8 8 7 7 7 6
7 8 7 5 4 7 10 6 8 6 2 1 3 7 6 4 4 5 6 5 2 2 4 8 7 6 4 4 2 3 2 2 4 7 5 6 4 6 7 8 9 7 7 6 6
5 6 6 2 5 8 5 4 7 9 11 3 1 4 2 7 2 7 4 5 3 7 3 5 8 3 2 2 4 2 1 2 1 3 5 7 5 11 8 6 7 7 6 6 7
4 5 4 1 4 7 2 5 3 5 5 3 3 2 2 1 5 12 7 6 6 3 2 7 3 2 3 4 1 1 1 0 2 2 3 3 6 5 5 4 7 8 6 7 5
5 3 2 2 4 3 5 2 3 4 6 3 2 3 3 5 3 8 6 2 5 7 6 6 1 4 1 6 6 2 3 2 5 1 2 1 1 4 2 3 6 5 5 6 6
4 2 1 4 5 1 3 6 4 2 6 7 5 4 4 4 6 2 2 2 5 4 3 4 4 4 4 3 1 1 4 1 3 3 3 2 6 5 5 6 6 4 6 6 6
3 1 2 3 4 3 2 5 3 5 4 3 4 2 3 5 1 8 3 7 4 3 3 1 5 5 5 2 0 5 3 3 2 2 2 1 3 3 7 7 8 6 6 6 6
6 5 3 4 4 1 4 4 5 7 1 2 2 1 3 6 4 4 7 8 3 4 6 2 1 2 2 4 3 5 3 5 5 3 2 4 4 5 7 7 4 5 6 7 6
8 8 3 2 1 4 2 5 6 6 1 1 1 3 3 4 4 4 5 8 4 3 4 3 2 4 3 4 3 8 5 5 6 5 6 3 1 8 5 4 8 9 8 6 5
8 5 4 2 2 1 4 6 5 3 2 2 1 2 3 0 2 5 3 4 5 4 3 1 5 2 4 2 1 3 3 5 4 4 6 0 7 6 5 5 5 7 7 6 4
5 3 2 4 3 2 7 5 6 3 1 5 2 2 2 2 1 6 4 1 0 2 2 1 4 1 1 0 2 2 3 2 1 2 2 4 5 2 3 4 5 7 6 5 4
3 2 2 5 3 5 7 3 3 0 1 1 3 1 3 2 2 3 0 1 1 1 1 2 3 2 0 0 1 0 4 1 3 4 6 6 6 6 8 10 7 7 6 5 4
4 3 4 5 3 7 4 4 2 2 2 2 2 2 2 2 2 2 1 1 1 3 1 0 2 2 2 3 3 1 1 3 4 5 4 5 9 4 8 9 9 7 6 6 5
3 2 3 2 5 2 3 1 1 1 3 2 4 3 2 2 2 2 4 0 1 1 1 1 3 4 6 0 1 2 3 4 5 5 3 2 10 2 5 7 8 7 7 5 5
3 1 2 4 4 1 1 2 2 1 1 2 2 1 1 3 1 2 3 1 2 1 2 1 1 4 7 3 2 3 3 4 4 3 5 4 9 2 4 6 6 9 7 6 5
3 2 5 5 1 8 5 3 1 1 1 2 3 1 3 2 3 4 2 1 0 1 2 1 2 5 7 7 2 4 4 5 5 4 4 9 7 6 7 7 7 7 6 6 5
3 3 2 3 1 5 3 5 4 3 1 1 2 2 4 3 1 2 2 1 1 0 1 3 3 3 7 9 4 7 8 8 9 7 7 6 7 4 10 11 9 7 6 6 4
4 4 3 1 2 6 2 6 8 2 2 3 5 4 2 4 5 5 5 4 3 0 1 1 2 2 6 2 2 8 8 9 9 3 12 15 19 4 5 8 7 8 7 5 4
0 1 4 2 2 5 5 6 8 8 0 2 2 5 4 5 3 2 4 4 3 6 4 2 1 3 7 6 8 6 5 6 5 6 6 6 7 8 5 8 8 8 7 6 5
Wind_Direction
115 93 91 92 113 116 119 131 129 52 44 33 15 353 339 338 333 47 38 253 282 298 321 300 39 43 40 50 41 74 65 92 161 160 159 155 107 352 21 78 43 59 74 115 132
100 92 94 119 120 119 132 131 109 57 42 20 354 338 332 339 5 36 260 286 287 296 13 20 13 42 50 23 29 64 83 133 343 98 142 108 104 126 85 74 65 82 66 81 67
106 113 112 122 134 131 133 131 75 55 31 356 346 332 325 328 56 325 313 333 328 314 154 55 61 61 57 26 3 37 108 104 38 93 95 107 68 99 125 54 118 125 113 77 78
117 108 118 133 131 134 142 96 75 33 7 355 349 328 320 32 74 282 327 328 326 51 114 52 39 57 67 47 9 95 59 100 148 121 95 93 95 77 32 129 143 134 133 108 88
106 119 126 131 138 116 130 78 19 359 354 1 345 331 38 51 51 296 325 327 351 44 70 94 66 99 92 115 63 75 116 60 102 86 74 97 89 123 112 135 130 126 115 115 104
116 134 125 149 123 139 172 4 352 349 353 352 339 322 68 72 297 321 332 350 16 47 47 61 107 111 87 58 66 89 93 111 85 90 112 115 142 97 207 151 134 124 123 130 128
130 125 130 133 108 206 359 337 330 348 349 342 344 17 64 87 348 328 14 4 0 22 83 43 115 75 118 92 115 112 83 79 137 168 129 138 103 157 167 156 148 141 144 124 123
118 117 117 107 75 360 350 319 320 330 322 319 338 56 82 293 312 13 349 348 10 54 94 100 87 89 73 132 66 77 88 120 199 177 181 203 226 206 177 150 161 155 138 138 127
103 107 99 82 45 7 320 306 294 284 259 279 47 88 13 333 20 327 19 356 325 23 82 85 66 95 88 91 58 204 229 202 186 199 140 195 214 215 176 155 164 164 159 152 134
95 96 88 70 40 344 309 285 307 314 83 199 58 53 354 304 313 346 328 9 359 30 22 42 59 76 40 66 201 212 232 199 218 213 189 185 229 195 197 163 168 165 170 155 132
112 107 94 72 30 345 357 5 22 2 31 72 186 98 332 299 34 355 339 354 33 46 62 19 66 85 230 248 240 233 223 200 224 201 180 216 169 195 193 129 149 177 174 160 127
145 119 108 92 359 330 13 81 141 170 70 2 59 42 328 123 31 343 12 70 46 47 352 31 67 244 276 3 328 237 145 326 299 217 162 154 210 203 185 175 171 179 177 155 131
134 140 206 272 332 9 88 78 9 93 93 350 69 48 322 60 61 320 27 25 92 48 29 109 252 311 127 31 28 35 137 194 227 185 250 324 343 158 195 127 188 198 115 123 133
126 138 278 302 53 274 45 329 4 101 77 317 344 346 6 110 24 288 16 100 44 145 124 84 339 34 58 80 52 337 194 221 285 88 265 96 283 227 194 200 217 129 138 134 136
65 72 24 43 153 66 275 330 333 58 60 330 337 262 30 86 232 344 11 30 83 27 101 277 9 14 39 285 84 237 189 230 205 178 18 207 88 250 137 227 225 178 167 147 159
5 350 198 18 47 247 318 349 54 48 72 338 328 348 44 12 18 322 21 31 76 76 36 97 349 70 268 288 230 306 74 40 50 81 342 207 154 243 187 208 161 178 159 160 157
349 344 122 86 185 312 2 46 48 96 295 281 81 66 78 10 25 43 44 22 51 63 4 353 340 325 28 338 19 24 38 348 355 3 232 160 125 258 205 206 159 170 168 166 149
335 349 8 76 308 325 59 53 83 180 219 238 121 77 89 353 24 20 71 42 30 41 72 87 329 16 3 77 247 344 111 140 285 269 287 144 241 291 182 178 143 135 149 144 143
4 356 35 312 328 53 73 59 185 200 235 147 72 98 353 356 116 81 58 108 272 48 143 72 263 126 136 41 123 1 39 186 217 29 16 254 286 240 159 203 151 145 145 151 134
80 49 311 307 10 61 75 181 183 180 352 168 150 179 149 310 96 83 333 313 336 68 144 197 326 186 235 27 236 175 177 18 20 320 296 288 283 246 220 215 186 166 164 150 122
59 63 263 350 63 50 125 199 172 239 192 122 155 108 94 111 64 74 194 341 355 314 3 71 113 285 24 192 189 8 310 69 125 144 216 298 268 214 213 190 183 168 166 162 143
100 68 291 49 57 36 125 122 191 181 -0 70 95 91 105 57 72 131 197 216 333 306 164 41 143 265 232 192 191 243 244 135 126 269 232 156 269 18 157 157 143 158 154 147 135
101 214 332 86 133 66 218 58 60 147 9 92 115 82 85 113 104 164 154 121 22 62 189 137 298 345 348 12 13 235 211 143 105 74 228 156 267 143 122 121 138 149 155 152 133
93 82 328 48 81 134 144 149 134 313 109 84 129 133 104 96 32 192 159 222 12 102 131 112 177 186 207 226 159 247 203 182 137 148 219 233 281 202 199 160 157 156 157 145 134
40 226 204 194 266 126 120 139 150 187 343 171 76 157 136 138 111 217 129 145 283 105 112 116 239 225 256 270 244 246 229 195 195 199 188 268 225 211 198 178 178 166 156 155 147
140 136 18 63 98 110 129 202 168 193 153 230 162 147 109 160 189 206 159 191 214 168 208 31 265 353 291 296 332 278 244 215 227 228 260 270 280 144 103 106 145 170 170 162 156
211 -0 108 296 116 113 210 183 191 143 118 32 149 113 127 173 142 100 89 78 167 159 180 127 90 44 270 340 323 323 237 199 213 209 183 223 235 150 156 168 171 178 172 168 166